Location: Rowland
(34.5359°N, 79.2929°W)
Time: 20:10:39
(UTC+00:00)

Transit 2A Rocket - Pass Details

Date: 11 October 2022
Orbit: 589 x 911 km, 66.7° (Epoch: 03 December)

Event Time Altitude Azimuth Distance (km) Brightness Sun altitude
Rises 09:46:40 0° 248° (WSW) 2,825 - -19.9°
Reaches altitude 10° 09:49:46 10° 272° (W) 1,914 - -19.3°
Maximum altitude 09:52:16 15° 308° (NW) 1,612 - -18.8°
Exits shadow 09:53:46 13° 332° (NNW) 1,735 6.6 -18.4°
Drops below altitude 10° 09:54:46 10° 344° (NNW) 1,928 7.0 -18.2°
Sets 09:57:55 0° 8° (N) 2,860 8.1 -17.6°
